STARLINK-35862, 66628

Orbit data source: Space-Track

STARLINK-35862, 66628 is a payload satellite owned by SpaceX/Seattle (US) in LEO that was launched on Sun, 23 Nov 2025 UTC via an FALCON 9 launch vehicle from the Air Force Western Test Range (AFWTR). Payload-class satellites include a variety of spacecraft equipped with specific instruments for various scientific and technological missions. These include communications satellites like Starlink; space stations such as the ISS; scientific satellites like the Hubble; Earth observation satellites from companies like Planet Labs, Umbra, and HawkEye 360; GPS; miniature CubeSats for education and research; and military/defense satellites.

Loading next visibility...
Identifier
66628, 2025-271M
Orbit
LEO
Country
Flag of USUS
Related business
Manufacturer
SpaceX/Seattle
Mission
Operational Commercial Communications
Bus & Motor
STARLINK V2MO, Unknown motor
Mass
575 kg wet, ~530 kg dry
Launch date (UTC)
2025-11-23 (2 months ago)
Launch vehicle
FALCON 9
Launch site
Air Force Western Test Range (AFWTR)
Object type
Payload
Rocket body
Debris
Shape & HBR
Box + 2 Pan, 17.7 m
Radar Cross Section
36.964 m²

Expand to show TLE details & history
Last TLE update: 6 hours ago

TLE from 6 hours ago
0 STARLINK-35862
1 66628U 25271M   26037.06117539  .00010572  00000-0  36868-3 0  9994
2 66628  53.1575 286.8821 0001279  92.2405 267.8742 15.30188126 12725
Epoch: 2026-02-06T01:28Z
TLE epoch observation values (Epoch: 2026-02-06T01:28:05.553Z)
Latitude
-0.00005°
Longitude
128.65447°
Altitude
476.183 km
Speed
7.629 km/s
True Right ascension
19h 07m 31s
True Declination
0° 00' 00"
Sunlit
Object was in daylight at epoch
Visualization orbit readout
Latitude
Unknown
Longitude
Unknown
Altitude
Unknown
Speed
Unknown
Apparent Right ascension
Unknown
Apparent Declination
Unknown
Sunlit
N/A
Visualization observer readout
Local Sidereal Time
09:05:40
Azimuth
Unknown
Elevation
Unknown
Doppler factor
Unknown
Orbital elements
Apogee altitude
476.384 km
Perigee altitude
474.631 km
Semi-major axis
6,853.644 km
Eccentricity
0.00013
Inclination
53.1575°
RAAN
286.8821°
Arg. of periapsis
92.2405°
True anomaly
267.85955°
Mean anomaly
267.8742°
Eccentric anomaly
267.86688°
Mean motion
3.82526 °/min
Orbital period
94.11 mins
BSTAR
0.00036868
Loading maneuver chart data...
Computing Atmospheric mass density...
Loading historical data...
Loading historical data...
Loading historical data...
Loading historical data...
Loading historical data...
Loading historical data...
Loading historical data...

Documentation

Showing up to 5 results
|